Terminal Aerodrome Forecast
Issued by NWS Sioux Falls, SD

Home | Current Version | Previous Version | Graphics & Text | Print | Product List | Glossary On
Versions: 1 2 3 4 5 6 7 8 9 10 11 12 13 14 15 16 17 18 19
000
FTUS43 KFSD 182014 AAC
TAFFSD
TAF AMD
KFSD 182014Z 1820/1918 12008KT P6SM -SHRA SCT025 OVC060
      TEMPO 1820/1822 4SM RA BR
     FM190000 15004KT P6SM OVC015
     FM190700 22009KT 6SM BR VCSH OVC015
     FM191200 33017G25KT P6SM OVC050=

USA.gov is the U.S. government's official web portal to all federal, state and local government web resources and services.